Location: Downe
(51.3167°N, 0.0500°E)
Time: 01:04:34
(UTC+00:00)

Cosmos 1459 Rocket - Pass Details

Date: 17 November 2019
Orbit: 938 x 999 km, 83.0° (Epoch: 09 December)

Event Time Altitude Azimuth Distance (km) Brightness Sun altitude
Rises 05:58:32 0° 211° (SSW) 3,637 6.8 -12.6°
Reaches altitude 10° 06:01:09 10° 218° (SW) 2,704 6.1 -12.2°
Maximum altitude 06:07:01 44° 289° (WNW) 1,338 4.3 -11.3°
Drops below altitude 10° 06:13:02 10° 0° (N) 2,760 6.2 -10.4°
Sets 06:15:45 0° 8° (N) 3,720 6.9 -10.0°
